Location: Newark
(38.1091°N, 103.8677°W)
Time: 16:08:04
(UTC+00:00)

N. Korean satellite - Pass Details

Date: 21 October 2019
Orbit: 456 x 506 km, 97.2° (Epoch: 21 November)

Event Time Altitude Azimuth Distance (km) Brightness Sun altitude
Rises 00:47:37 0° 197° (SSW) 2,459 10.5 -7.9°
Reaches altitude 10° 00:50:00 10° 214° (SW) 1,592 9.8 -8.4°
Maximum altitude 00:52:37 21° 265° (W) 1,092 9.6 -8.9°
Drops below altitude 10° 00:55:17 10° 316° (NW) 1,609 9.8 -9.4°
Sets 00:57:43 0° 333° (NNW) 2,495 10.5 -9.9°
